Time,TemperatureF,DewpointF,PressureIn,WindDirection,WindDirectionDegrees,WindSpeedMPH,WindSpeedGustMPH,Humidity,HourlyPrecipIn,Conditions,Clouds,dailyrainin,SoftwareType,DateUTC
2013-10-22 00:01:00,32.7,29.8,29.73,West,270,0.0,0.0,89,0.00,,,0.00,WUHU21636XXSP,2013-10-22 04:01:00,
2013-10-22 00:02:00,32.7,29.8,29.73,West,270,0.0,0.0,89,0.00,,,0.00,WUHU21636XXSP,2013-10-22 04:02:00,
2013-10-22 00:07:00,32.7,29.8,29.73,West,270,0.0,0.0,89,0.00,,,0.00,WUHU21636XXSP,2013-10-22 04:07:00,
2013-10-22 00:12:00,32.7,29.8,29.73,West,270,0.0,0.0,89,0.00,,,0.00,WUHU21636XXSP,2013-10-22 04:12:00,
2013-10-22 00:17:00,32.7,29.8,29.73,West,270,0.0,0.0,89,0.00,,,0.00,WUHU21636XXSP,2013-10-22 04:17:00,
2013-10-22 00:22:00,32.5,29.7,29.73,West,270,0.0,0.0,89,0.00,,,0.00,WUHU21636XXSP,2013-10-22 04:22:00,
2013-10-22 00:27:00,32.5,29.7,29.73,West,270,0.0,0.0,89,0.00,,,0.00,WUHU21636XXSP,2013-10-22 04:27:00,
2013-10-22 00:32:00,32.5,29.7,29.73,West,270,0.0,0.0,89,0.00,,,0.00,WUHU21636XXSP,2013-10-22 04:32:00,
2013-10-22 00:37:00,32.5,29.7,29.73,West,270,0.0,0.0,89,0.00,,,0.00,WUHU21636XXSP,2013-10-22 04:37:00,
2013-10-22 00:42:00,32.4,29.5,29.73,SSW,202,0.0,0.0,89,0.00,,,0.00,WUHU21636XXSP,2013-10-22 04:42:00,
2013-10-22 00:47:00,32.5,29.7,29.73,SW,225,0.0,0.0,89,0.00,,,0.00,WUHU21636XXSP,2013-10-22 04:47:00,
2013-10-22 00:52:00,32.7,29.8,29.73,WSW,247,0.0,0.0,89,0.00,,,0.00,WUHU21636XXSP,2013-10-22 04:52:00,
2013-10-22 00:57:00,32.7,29.8,29.73,SW,225,0.0,0.0,90,0.00,,,0.00,WUHU21636XXSP,2013-10-22 04:57:00,
2013-10-22 01:02:00,32.7,29.8,29.73,SSW,202,0.0,0.0,89,0.00,,,0.00,WUHU21636XXSP,2013-10-22 05:02:00,
2013-10-22 01:07:00,32.5,29.8,29.72,SW,225,0.0,0.0,90,0.00,,,0.00,WUHU21636XXSP,2013-10-22 05:07:00,
2013-10-22 01:12:00,32.5,29.8,29.72,WSW,247,0.0,0.0,90,0.00,,,0.00,WUHU21636XXSP,2013-10-22 05:12:00,
2013-10-22 01:17:00,32.5,29.8,29.72,SSW,202,0.0,0.0,90,0.00,,,0.00,WUHU21636XXSP,2013-10-22 05:17:00,
2013-10-22 01:22:00,32.4,29.5,29.72,North,0,0.0,0.0,89,0.00,,,0.00,WUHU21636XXSP,2013-10-22 05:22:00,
2013-10-22 01:27:00,32.5,29.7,29.72,SSW,202,0.0,0.0,89,0.00,,,0.00,WUHU21636XXSP,2013-10-22 05:27:00,
2013-10-22 01:32:00,32.5,29.7,29.72,West,270,0.0,0.0,88,0.00,,,0.00,WUHU21636XXSP,2013-10-22 05:32:00,
2013-10-22 01:37:00,32.5,29.7,29.72,WSW,247,0.0,0.0,89,0.00,,,0.00,WUHU21636XXSP,2013-10-22 05:37:00,
2013-10-22 01:42:00,32.4,29.5,29.72,SSE,157,0.0,0.0,89,0.00,,,0.00,WUHU21636XXSP,2013-10-22 05:42:00,
2013-10-22 01:47:00,32.4,29.5,29.72,SSW,202,0.0,0.0,90,0.00,,,0.00,WUHU21636XXSP,2013-10-22 05:47:00,
2013-10-22 01:52:00,32.2,29.5,29.72,SSW,202,0.0,0.0,90,0.00,,,0.00,WUHU21636XXSP,2013-10-22 05:52:00,
2013-10-22 01:57:00,32.2,29.5,29.72,SW,225,0.0,0.0,90,0.00,,,0.00,WUHU21636XXSP,2013-10-22 05:57:00,
2013-10-22 02:02:00,32.4,29.7,29.72,SSW,202,0.0,0.0,90,0.00,,,0.00,WUHU21636XXSP,2013-10-22 06:02:00,
2013-10-22 02:07:00,32.2,29.5,29.72,South,180,0.0,0.0,90,0.00,,,0.00,WUHU21636XXSP,2013-10-22 06:07:00,
2013-10-22 02:12:00,32.2,29.5,29.72,SSE,157,0.0,0.0,90,0.00,,,0.00,WUHU21636XXSP,2013-10-22 06:12:00,
2013-10-22 02:17:00,32.4,29.7,29.72,SSW,202,0.0,0.0,90,0.00,,,0.00,WUHU21636XXSP,2013-10-22 06:17:00,
2013-10-22 02:22:00,32.4,29.7,29.72,SSW,202,0.0,0.0,90,0.00,,,0.00,WUHU21636XXSP,2013-10-22 06:22:00,
2013-10-22 02:27:00,32.5,29.8,29.71,SSW,202,0.0,0.0,90,0.00,,,0.00,WUHU21636XXSP,2013-10-22 06:27:00,
2013-10-22 02:32:00,32.5,29.8,29.71,SW,225,0.0,0.0,90,0.00,,,0.00,WUHU21636XXSP,2013-10-22 06:32:00,
2013-10-22 02:37:00,32.5,29.8,29.71,SW,225,0.0,0.0,90,0.00,,,0.00,WUHU21636XXSP,2013-10-22 06:37:00,
2013-10-22 02:42:00,32.5,29.8,29.71,SW,225,0.0,0.0,90,0.00,,,0.00,WUHU21636XXSP,2013-10-22 06:42:00,
2013-10-22 02:47:00,32.7,29.8,29.71,South,180,0.0,0.0,89,0.00,,,0.00,WUHU21636XXSP,2013-10-22 06:47:00,
2013-10-22 02:52:00,32.7,29.8,29.71,South,180,0.0,0.0,89,0.00,,,0.00,WUHU21636XXSP,2013-10-22 06:52:00,
2013-10-22 02:57:00,32.9,29.8,29.70,SSW,202,0.0,0.0,89,0.00,,,0.00,WUHU21636XXSP,2013-10-22 06:57:00,
2013-10-22 03:02:00,32.9,29.8,29.70,South,180,0.0,0.0,89,0.00,,,0.00,WUHU21636XXSP,2013-10-22 07:02:00,
2013-10-22 03:07:00,32.9,29.8,29.71,SSE,157,0.0,0.0,89,0.00,,,0.00,WUHU21636XXSP,2013-10-22 07:07:00,
2013-10-22 03:12:00,32.7,29.8,29.71,SW,225,0.0,0.0,89,0.00,,,0.00,WUHU21636XXSP,2013-10-22 07:12:00,
2013-10-22 03:17:00,32.9,30.0,29.71,SSW,202,0.0,0.0,90,0.00,,,0.00,WUHU21636XXSP,2013-10-22 07:17:00,
2013-10-22 03:22:00,32.9,30.0,29.70,South,180,0.0,0.0,90,0.00,,,0.00,WUHU21636XXSP,2013-10-22 07:22:00,
2013-10-22 03:27:00,32.9,30.0,29.70,South,180,0.0,0.0,90,0.00,,,0.00,WUHU21636XXSP,2013-10-22 07:27:00,
2013-10-22 03:32:00,32.9,30.0,29.70,SSE,157,0.0,0.0,91,0.00,,,0.00,WUHU21636XXSP,2013-10-22 07:32:00,
2013-10-22 03:37:00,32.5,30.2,29.69,SSW,202,0.0,0.0,91,0.00,,,0.00,WUHU21636XXSP,2013-10-22 07:37:00,
2013-10-22 03:42:00,32.5,30.2,29.69,SSE,157,0.0,0.0,91,0.00,,,0.00,WUHU21636XXSP,2013-10-22 07:42:00,
2013-10-22 03:47:00,32.5,30.2,29.69,SSW,202,0.0,0.0,91,0.00,,,0.00,WUHU21636XXSP,2013-10-22 07:47:00,
2013-10-22 03:52:00,32.5,30.2,29.69,SSE,157,0.0,0.0,91,0.00,,,0.00,WUHU21636XXSP,2013-10-22 07:52:00,
2013-10-22 03:57:00,32.5,30.2,29.68,SSE,157,0.0,0.0,91,0.00,,,0.00,WUHU21636XXSP,2013-10-22 07:57:00,
2013-10-22 04:01:00,32.5,30.2,29.68,SSE,157,0.0,0.0,91,0.00,,,0.00,WUHU21636XXSP,2013-10-22 08:01:00,
2013-10-22 04:06:00,32.4,30.0,29.68,SSW,202,0.0,0.0,91,0.00,,,0.00,WUHU21636XXSP,2013-10-22 08:06:00,
2013-10-22 04:11:00,32.5,30.2,29.68,SSE,157,0.0,0.0,91,0.00,,,0.00,WUHU21636XXSP,2013-10-22 08:11:00,
2013-10-22 04:16:00,32.5,30.2,29.68,SW,225,0.0,0.0,91,0.00,,,0.00,WUHU21636XXSP,2013-10-22 08:16:00,
2013-10-22 04:21:00,32.7,30.4,29.68,SE,135,0.0,0.0,91,0.00,,,0.00,WUHU21636XXSP,2013-10-22 08:21:00,
2013-10-22 04:26:00,32.7,30.4,29.67,SW,225,0.0,0.0,91,0.00,,,0.00,WUHU21636XXSP,2013-10-22 08:26:00,
2013-10-22 04:31:00,32.7,30.4,29.67,SW,225,0.0,0.0,91,0.00,,,0.00,WUHU21636XXSP,2013-10-22 08:31:00,
2013-10-22 04:36:00,32.9,30.4,29.66,WSW,247,0.0,0.0,91,0.00,,,0.00,WUHU21636XXSP,2013-10-22 08:36:00,
2013-10-22 04:41:00,33.1,30.6,29.66,SSW,202,0.0,0.0,91,0.00,,,0.00,WUHU21636XXSP,2013-10-22 08:41:00,
2013-10-22 04:46:00,33.1,30.6,29.66,SW,225,0.0,0.0,91,0.00,,,0.00,WUHU21636XXSP,2013-10-22 08:46:00,
2013-10-22 04:51:00,33.1,30.6,29.66,WSW,247,0.0,0.0,91,0.00,,,0.00,WUHU21636XXSP,2013-10-22 08:51:00,
2013-10-22 04:56:00,33.4,30.9,29.66,SSW,202,0.0,0.0,91,0.00,,,0.00,WUHU21636XXSP,2013-10-22 08:56:00,
2013-10-22 05:01:00,33.4,30.9,29.66,West,270,0.0,0.0,91,0.00,,,0.00,WUHU21636XXSP,2013-10-22 09:01:00,
2013-10-22 05:06:00,33.6,31.1,29.66,West,270,1.1,2.2,91,0.00,,,0.00,WUHU21636XXSP,2013-10-22 09:06:00,
2013-10-22 05:11:00,33.6,31.1,29.66,WSW,247,2.0,6.4,91,0.00,,,0.00,WUHU21636XXSP,2013-10-22 09:11:00,
2013-10-22 05:16:00,34.2,31.6,29.66,SW,225,5.1,6.4,91,0.00,,,0.00,WUHU21636XXSP,2013-10-22 09:16:00,
2013-10-22 05:21:00,34.5,32.0,29.66,NW,315,0.0,5.1,91,0.00,,,0.00,WUHU21636XXSP,2013-10-22 09:21:00,
2013-10-22 05:26:00,34.5,32.0,29.66,West,270,0.0,5.1,91,0.00,,,0.00,WUHU21636XXSP,2013-10-22 09:26:00,
2013-10-22 05:31:00,34.7,32.2,29.66,NNW,337,5.3,6.9,91,0.00,,,0.00,WUHU21636XXSP,2013-10-22 09:31:00,
2013-10-22 05:36:00,35.1,32.5,29.66,WSW,247,3.1,18.5,91,0.00,,,0.00,WUHU21636XXSP,2013-10-22 09:36:00,
2013-10-22 05:41:00,35.2,32.7,29.66,WSW,247,3.8,18.5,91,0.00,,,0.00,WUHU21636XXSP,2013-10-22 09:41:00,
2013-10-22 05:46:00,35.2,32.7,29.66,West,270,0.6,8.0,91,0.00,,,0.00,WUHU21636XXSP,2013-10-22 09:46:00,
2013-10-22 05:52:00,35.6,33.1,29.66,West,270,1.7,12.0,91,0.00,,,0.00,WUHU21636XXSP,2013-10-22 09:52:00,
2013-10-22 05:57:00,35.8,33.3,29.66,WSW,247,0.0,12.0,91,0.00,,,0.00,WUHU21636XXSP,2013-10-22 09:57:00,
2013-10-22 06:02:00,36.1,33.4,29.66,SW,225,2.9,12.0,90,0.00,,,0.00,WUHU21636XXSP,2013-10-22 10:02:00,
2013-10-22 06:06:00,36.3,33.6,29.66,NW,315,0.0,4.2,90,0.00,,,0.00,WUHU21636XXSP,2013-10-22 10:06:00,
2013-10-22 06:12:00,36.3,33.6,29.66,West,270,4.4,4.4,90,0.00,,,0.00,WUHU21636XXSP,2013-10-22 10:12:00,
2013-10-22 06:17:00,36.3,33.6,29.66,West,270,0.8,8.5,90,0.00,,,0.00,WUHU21636XXSP,2013-10-22 10:17:00,
2013-10-22 06:22:00,36.7,34.0,29.67,NW,315,9.3,17.6,89,0.00,,,0.00,WUHU21636XXSP,2013-10-22 10:22:00,
2013-10-22 06:27:00,36.3,33.3,29.66,WNW,292,7.6,17.6,89,0.00,,,0.00,WUHU21636XXSP,2013-10-22 10:27:00,
2013-10-22 06:32:00,36.3,33.6,29.67,West,270,5.1,20.8,90,0.02,,,0.02,WUHU21636XXSP,2013-10-22 10:32:00,
2013-10-22 06:37:00,36.3,33.6,29.67,West,270,0.0,20.8,90,0.02,,,0.02,WUHU21636XXSP,2013-10-22 10:37:00,
2013-10-22 06:42:00,36.5,33.8,29.67,NW,315,5.1,11.1,90,0.02,,,0.02,WUHU21636XXSP,2013-10-22 10:42:00,
2013-10-22 06:47:00,36.5,33.8,29.67,West,270,0.8,17.4,90,0.04,,,0.04,WUHU21636XXSP,2013-10-22 10:47:00,
2013-10-22 06:52:00,36.7,34.0,29.67,WNW,292,4.6,17.4,90,0.04,,,0.04,WUHU21636XXSP,2013-10-22 10:52:00,
2013-10-22 06:57:00,36.7,34.0,29.67,WNW,292,3.8,15.6,90,0.06,,,0.06,WUHU21636XXSP,2013-10-22 10:57:00,
2013-10-22 07:02:00,36.7,34.0,29.67,NW,315,12.7,19.9,90,0.06,,,0.06,WUHU21636XXSP,2013-10-22 11:02:00,
2013-10-22 07:07:00,36.3,33.6,29.67,WNW,292,3.8,22.5,90,0.08,,,0.08,WUHU21636XXSP,2013-10-22 11:07:00,
2013-10-22 07:12:00,36.3,33.6,29.67,WSW,247,1.7,22.5,90,0.08,,,0.08,WUHU21636XXSP,2013-10-22 11:12:00,
2013-10-22 07:17:00,36.3,33.6,29.67,West,270,2.6,7.3,90,0.08,,,0.08,WUHU21636XXSP,2013-10-22 11:17:00,
2013-10-22 07:22:00,36.3,33.6,29.67,West,270,1.3,8.5,90,0.10,,,0.10,WUHU21636XXSP,2013-10-22 11:22:00,
2013-10-22 07:27:00,36.5,33.8,29.67,NW,315,3.3,11.8,90,0.10,,,0.10,WUHU21636XXSP,2013-10-22 11:27:00,
2013-10-22 07:32:00,36.7,34.2,29.67,NW,315,5.8,14.3,91,0.08,,,0.10,WUHU21636XXSP,2013-10-22 11:32:00,
2013-10-22 07:37:00,36.7,34.2,29.67,NW,315,5.1,14.3,91,0.08,,,0.10,WUHU21636XXSP,2013-10-22 11:37:00,
2013-10-22 07:42:00,36.7,34.2,29.68,NW,315,6.4,11.4,91,0.08,,,0.10,WUHU21636XXSP,2013-10-22 11:42:00,
2013-10-22 07:47:00,37.0,34.5,29.68,NNW,337,8.0,11.6,91,0.08,,,0.12,WUHU21636XXSP,2013-10-22 11:47:00,
2013-10-22 07:52:00,36.9,34.2,29.68,NW,315,16.3,26.3,90,0.08,,,0.12,WUHU21636XXSP,2013-10-22 11:52:00,
2013-10-22 07:57:00,36.7,34.0,29.68,NNW,337,11.6,27.7,90,0.08,,,0.14,WUHU21636XXSP,2013-10-22 11:57:00,
2013-10-22 08:02:00,37.0,34.3,29.69,NW,315,12.5,27.7,90,0.10,,,0.16,WUHU21636XXSP,2013-10-22 12:02:00,
2013-10-22 08:07:00,37.2,34.5,29.69,NW,315,7.8,21.0,90,0.08,,,0.16,WUHU21636XXSP,2013-10-22 12:07:00,
2013-10-22 08:12:00,37.6,34.9,29.69,NW,315,9.8,17.2,90,0.08,,,0.16,WUHU21636XXSP,2013-10-22 12:12:00,
2013-10-22 08:17:00,37.6,34.5,29.69,NW,315,9.6,19.2,89,0.10,,,0.18,WUHU21636XXSP,2013-10-22 12:17:00,
2013-10-22 08:22:00,37.6,34.5,29.70,NW,315,7.6,19.2,89,0.08,,,0.18,WUHU21636XXSP,2013-10-22 12:22:00,
2013-10-22 08:27:00,37.6,34.5,29.70,NNW,337,9.3,19.9,89,0.08,,,0.18,WUHU21636XXSP,2013-10-22 12:27:00,
2013-10-22 08:32:00,37.6,34.5,29.70,NNW,337,8.7,19.9,89,0.08,,,0.18,WUHU21636XXSP,2013-10-22 12:32:00,
2013-10-22 08:37:00,37.9,34.5,29.70,NNW,337,10.5,20.5,88,0.10,,,0.20,WUHU21636XXSP,2013-10-22 12:37:00,
2013-10-22 08:42:00,37.8,34.3,29.71,NW,315,15.4,21.0,88,0.08,,,0.20,WUHU21636XXSP,2013-10-22 12:42:00,
2013-10-22 08:47:00,37.8,34.3,29.72,WNW,292,7.1,21.0,88,0.08,,,0.20,WUHU21636XXSP,2013-10-22 12:47:00,
2013-10-22 08:52:00,37.8,34.3,29.72,NNE,22,12.9,23.7,88,0.10,,,0.22,WUHU21636XXSP,2013-10-22 12:52:00,
2013-10-22 08:57:00,37.6,34.0,29.72,NW,315,11.8,25.0,87,0.08,,,0.22,WUHU21636XXSP,2013-10-22 12:57:00,
2013-10-22 09:02:00,37.9,34.3,29.72,NW,315,10.2,25.7,87,0.06,,,0.22,WUHU21636XXSP,2013-10-22 13:02:00,
2013-10-22 09:07:00,38.1,34.5,29.72,NNW,337,11.6,25.7,87,0.06,,,0.22,WUHU21636XXSP,2013-10-22 13:07:00,
2013-10-22 09:12:00,38.1,34.2,29.72,NW,315,9.8,24.1,86,0.06,,,0.22,WUHU21636XXSP,2013-10-22 13:12:00,
2013-10-22 09:17:00,38.3,34.7,29.73,NW,315,9.3,24.1,87,0.04,,,0.22,WUHU21636XXSP,2013-10-22 13:17:00,
2013-10-22 09:22:00,38.5,34.9,29.73,NW,315,10.9,17.4,87,0.04,,,0.22,WUHU21636XXSP,2013-10-22 13:22:00,
2013-10-22 09:27:00,38.1,34.5,29.73,NW,315,11.8,16.7,87,0.04,,,0.22,WUHU21636XXSP,2013-10-22 13:27:00,
2013-10-22 09:32:00,38.1,34.7,29.73,North,0,7.8,17.6,88,0.02,,,0.22,WUHU21636XXSP,2013-10-22 13:32:00,
2013-10-22 09:37:00,38.8,35.2,29.74,NNW,337,12.3,22.1,87,0.02,,,0.22,WUHU21636XXSP,2013-10-22 13:37:00,
2013-10-22 09:42:00,38.8,35.2,29.74,NW,315,10.5,22.1,87,0.02,,,0.22,WUHU21636XXSP,2013-10-22 13:42:00,
2013-10-22 09:47:00,38.3,34.9,29.73,NW,315,6.4,19.9,87,0.02,,,0.22,WUHU21636XXSP,2013-10-22 13:47:00,
2013-10-22 09:52:00,38.5,34.9,29.74,NW,315,10.7,19.9,87,0.00,,,0.22,WUHU21636XXSP,2013-10-22 13:52:00,
2013-10-22 09:57:00,38.1,34.7,29.74,NNW,337,8.5,19.4,88,0.03,,,0.25,WUHU21636XXSP,2013-10-22 13:57:00,
2013-10-22 10:02:00,38.1,35.1,29.74,NNW,337,6.9,19.4,89,0.03,,,0.25,WUHU21636XXSP,2013-10-22 14:02:00,
2013-10-22 10:07:00,38.3,35.2,29.74,NNW,337,0.0,15.4,89,0.03,,,0.25,WUHU21636XXSP,2013-10-22 14:07:00,
2013-10-22 10:12:00,38.5,35.4,29.74,North,0,4.0,15.4,89,0.03,,,0.25,WUHU21636XXSP,2013-10-22 14:12:00,
2013-10-22 10:17:00,38.8,35.8,29.74,NNW,337,8.7,15.4,89,0.03,,,0.25,WUHU21636XXSP,2013-10-22 14:17:00,
2013-10-22 10:22:00,39.0,36.0,29.74,NW,315,4.6,10.7,89,0.03,,,0.25,WUHU21636XXSP,2013-10-22 14:22:00,
2013-10-22 10:27:00,40.1,35.6,29.74,NW,315,19.6,25.5,88,0.03,,,0.25,WUHU21636XXSP,2013-10-22 14:27:00,
2013-10-22 10:32:00,39.0,35.4,29.75,WNW,292,13.8,25.5,87,0.03,,,0.25,WUHU21636XXSP,2013-10-22 14:32:00,
2013-10-22 10:37:00,39.0,35.4,29.75,NW,315,13.8,25.2,87,0.03,,,0.25,WUHU21636XXSP,2013-10-22 14:37:00,
2013-10-22 10:42:00,39.0,35.4,29.75,NW,315,10.9,24.1,87,0.03,,,0.25,WUHU21636XXSP,2013-10-22 14:42:00,
2013-10-22 10:47:00,40.6,37.6,29.75,NNW,337,12.3,19.9,89,0.03,,,0.25,WUHU21636XXSP,2013-10-22 14:47:00,
2013-10-22 10:52:00,40.8,36.1,29.75,NNW,337,11.1,19.9,84,0.03,,,0.25,WUHU21636XXSP,2013-10-22 14:52:00,
2013-10-22 10:57:00,40.5,35.8,29.76,North,0,10.7,22.1,84,0.00,,,0.25,WUHU21636XXSP,2013-10-22 14:57:00,
2013-10-22 11:02:00,40.6,36.9,29.76,North,0,7.6,22.1,87,0.00,,,0.25,WUHU21636XXSP,2013-10-22 15:02:00,
2013-10-22 11:07:00,40.1,36.1,29.76,NW,315,8.2,19.0,86,0.00,,,0.25,WUHU21636XXSP,2013-10-22 15:07:00,
2013-10-22 11:12:00,39.4,35.8,29.76,NW,315,8.9,19.0,87,0.00,,,0.25,WUHU21636XXSP,2013-10-22 15:12:00,
2013-10-22 11:17:00,39.7,36.3,29.77,NW,315,15.6,22.3,88,0.00,,,0.25,WUHU21636XXSP,2013-10-22 15:17:00,
2013-10-22 11:22:00,38.1,34.5,29.77,NW,315,11.4,26.8,87,0.02,,,0.27,WUHU21636XXSP,2013-10-22 15:22:00,
2013-10-22 11:27:00,38.3,35.2,29.77,NNW,337,9.8,26.8,89,0.02,,,0.27,WUHU21636XXSP,2013-10-22 15:27:00,
2013-10-22 11:32:00,38.7,35.6,29.77,NW,315,6.4,19.9,89,0.02,,,0.27,WUHU21636XXSP,2013-10-22 15:32:00,
2013-10-22 11:37:00,40.6,38.1,29.77,NW,315,4.9,12.5,91,0.02,,,0.27,WUHU21636XXSP,2013-10-22 15:37:00,
2013-10-22 11:42:00,39.9,36.3,29.77,West,270,9.1,18.3,87,0.02,,,0.27,WUHU21636XXSP,2013-10-22 15:42:00,
2013-10-22 11:47:00,41.2,38.1,29.77,NW,315,12.0,20.1,89,0.02,,,0.27,WUHU21636XXSP,2013-10-22 15:47:00,
2013-10-22 11:52:00,41.7,37.0,29.77,NNW,337,16.5,24.3,84,0.02,,,0.27,WUHU21636XXSP,2013-10-22 15:52:00,
2013-10-22 11:57:00,43.0,38.3,29.77,North,0,9.8,24.3,84,0.02,,,0.27,WUHU21636XXSP,2013-10-22 15:57:00,
2013-10-22 12:02:00,43.3,37.6,29.77,NNW,337,13.6,20.8,83,0.02,,,0.27,WUHU21636XXSP,2013-10-22 16:02:00,
2013-10-22 12:07:00,41.4,36.1,29.78,NNW,337,11.6,24.1,82,0.02,,,0.27,WUHU21636XXSP,2013-10-22 16:07:00,
2013-10-22 12:12:00,41.2,37.4,29.78,NW,315,9.3,24.1,87,0.02,,,0.27,WUHU21636XXSP,2013-10-22 16:12:00,
2013-10-22 12:17:00,42.4,37.6,29.78,WNW,292,10.7,19.9,83,0.02,,,0.27,WUHU21636XXSP,2013-10-22 16:17:00,
2013-10-22 12:22:00,41.7,37.0,29.78,NW,315,12.3,19.9,84,0.00,,,0.27,WUHU21636XXSP,2013-10-22 16:22:00,
2013-10-22 12:27:00,41.2,36.5,29.78,NNW,337,10.5,19.0,84,0.00,,,0.27,WUHU21636XXSP,2013-10-22 16:27:00,
2013-10-22 12:32:00,40.8,36.9,29.79,NNE,22,2.2,18.1,86,0.00,,,0.27,WUHU21636XXSP,2013-10-22 16:32:00,
2013-10-22 12:37:00,41.5,37.8,29.79,NW,315,6.9,17.6,87,0.00,,,0.27,WUHU21636XXSP,2013-10-22 16:37:00,
2013-10-22 12:42:00,43.2,39.7,29.78,North,0,1.7,15.8,88,0.00,,,0.27,WUHU21636XXSP,2013-10-22 16:42:00,
2013-10-22 12:47:00,43.0,38.1,29.78,NNW,337,11.4,23.9,83,0.00,,,0.27,WUHU21636XXSP,2013-10-22 16:47:00,
2013-10-22 12:52:00,42.6,37.0,29.78,North,0,4.6,23.9,81,0.00,,,0.27,WUHU21636XXSP,2013-10-22 16:52:00,
2013-10-22 12:57:00,42.8,36.7,29.78,NNW,337,6.9,21.9,79,0.00,,,0.27,WUHU21636XXSP,2013-10-22 16:57:00,
2013-10-22 13:02:00,42.6,36.5,29.78,NNW,337,2.6,21.9,79,0.00,,,0.27,WUHU21636XXSP,2013-10-22 17:02:00,
2013-10-22 13:07:00,43.7,36.5,29.78,NNW,337,12.0,20.8,76,0.00,,,0.27,WUHU21636XXSP,2013-10-22 17:07:00,
2013-10-22 13:12:00,43.0,35.8,29.78,NNW,337,10.5,21.4,76,0.00,,,0.27,WUHU21636XXSP,2013-10-22 17:12:00,
2013-10-22 13:17:00,43.3,37.0,29.78,NW,315,10.7,22.8,74,0.00,,,0.27,WUHU21636XXSP,2013-10-22 17:17:00,
2013-10-22 13:22:00,44.4,36.5,29.78,NNW,337,11.8,25.0,74,0.00,,,0.27,WUHU21636XXSP,2013-10-22 17:22:00,
2013-10-22 13:27:00,44.2,38.1,29.79,NW,315,9.3,25.0,79,0.00,,,0.27,WUHU21636XXSP,2013-10-22 17:27:00,
2013-10-22 13:32:00,44.4,37.2,29.78,NNW,337,12.7,23.7,76,0.00,,,0.27,WUHU21636XXSP,2013-10-22 17:32:00,
2013-10-22 13:37:00,42.8,36.7,29.79,NW,315,11.6,24.1,79,0.00,,,0.27,WUHU21636XXSP,2013-10-22 17:37:00,
2013-10-22 13:42:00,41.7,35.6,29.79,WNW,292,9.3,24.1,79,0.00,,,0.27,WUHU21636XXSP,2013-10-22 17:42:00,
2013-10-22 13:47:00,43.2,37.0,29.79,NW,315,9.6,18.3,81,0.03,,,0.30,WUHU21636XXSP,2013-10-22 17:47:00,
2013-10-22 13:52:00,41.5,36.0,29.79,NW,315,9.1,27.5,81,0.03,,,0.30,WUHU21636XXSP,2013-10-22 17:52:00,
2013-10-22 13:57:00,39.6,35.6,29.79,NW,315,12.7,27.5,86,0.03,,,0.30,WUHU21636XXSP,2013-10-22 17:57:00,
2013-10-22 14:02:00,39.6,36.5,29.79,NNW,337,7.3,20.8,89,0.03,,,0.30,WUHU21636XXSP,2013-10-22 18:02:00,
2013-10-22 14:07:00,40.8,38.1,29.79,NNW,337,4.2,19.0,90,0.03,,,0.30,WUHU21636XXSP,2013-10-22 18:07:00,
2013-10-22 14:12:00,40.8,37.0,29.79,NNW,337,7.8,11.8,87,0.03,,,0.30,WUHU21636XXSP,2013-10-22 18:12:00,
2013-10-22 14:17:00,41.5,38.1,29.79,NW,315,5.5,11.6,88,0.03,,,0.30,WUHU21636XXSP,2013-10-22 18:17:00,
2013-10-22 14:22:00,43.3,39.6,29.79,NNW,337,1.5,11.4,87,0.03,,,0.30,WUHU21636XXSP,2013-10-22 18:22:00,
2013-10-22 14:27:00,44.2,39.4,29.79,NW,315,8.0,12.3,83,0.03,,,0.30,WUHU21636XXSP,2013-10-22 18:27:00,
2013-10-22 14:32:00,42.3,37.9,29.79,North,0,15.8,19.6,83,0.03,,,0.30,WUHU21636XXSP,2013-10-22 18:32:00,
2013-10-22 14:37:00,41.4,37.4,29.79,North,0,4.0,19.6,86,0.03,,,0.30,WUHU21636XXSP,2013-10-22 18:37:00,
2013-10-22 14:42:00,41.5,38.1,29.80,NNW,337,2.4,12.0,88,0.00,,,0.30,WUHU21636XXSP,2013-10-22 18:42:00,
2013-10-22 14:47:00,40.8,36.7,29.80,NW,315,6.7,7.1,86,0.00,,,0.30,WUHU21636XXSP,2013-10-22 18:47:00,
2013-10-22 14:52:00,40.5,36.7,29.79,NW,315,0.0,8.2,87,0.00,,,0.30,WUHU21636XXSP,2013-10-22 18:52:00,
2013-10-22 14:57:00,40.3,36.7,29.80,NW,315,2.9,18.3,88,0.00,,,0.30,WUHU21636XXSP,2013-10-22 18:57:00,
2013-10-22 15:02:00,39.9,36.3,29.80,NW,315,3.1,18.3,87,0.00,,,0.30,WUHU21636XXSP,2013-10-22 19:02:00,
2013-10-22 15:07:00,39.7,36.3,29.80,NNW,337,2.9,4.4,88,0.00,,,0.30,WUHU21636XXSP,2013-10-22 19:07:00,
2013-10-22 15:12:00,40.5,37.0,29.80,NNW,337,4.4,27.7,88,0.00,,,0.30,WUHU21636XXSP,2013-10-22 19:12:00,
2013-10-22 15:17:00,40.3,36.9,29.80,WNW,292,0.0,27.7,87,0.00,,,0.30,WUHU21636XXSP,2013-10-22 19:17:00,
2013-10-22 15:22:00,40.8,37.8,29.80,NNW,337,2.9,10.9,89,0.01,,,0.31,WUHU21636XXSP,2013-10-22 19:22:00,
2013-10-22 15:27:00,40.8,37.0,29.79,NW,315,4.0,11.1,87,0.01,,,0.31,WUHU21636XXSP,2013-10-22 19:27:00,
2013-10-22 15:32:00,41.4,37.6,29.79,NW,315,6.4,11.1,87,0.01,,,0.31,WUHU21636XXSP,2013-10-22 19:32:00,
2013-10-22 15:37:00,41.2,37.4,29.79,NNW,337,6.0,10.0,87,0.01,,,0.31,WUHU21636XXSP,2013-10-22 19:37:00,
2013-10-22 15:42:00,41.5,38.1,29.79,NNW,337,6.4,10.0,88,0.01,,,0.31,WUHU21636XXSP,2013-10-22 19:42:00,
2013-10-22 15:47:00,42.4,38.5,29.79,NNW,337,7.1,10.5,86,0.01,,,0.31,WUHU21636XXSP,2013-10-22 19:47:00,
2013-10-22 15:52:00,42.1,38.1,29.80,WNW,292,2.0,10.5,86,0.01,,,0.31,WUHU21636XXSP,2013-10-22 19:52:00,
2013-10-22 15:57:00,39.9,35.4,29.80,WNW,292,11.6,21.2,84,0.01,,,0.31,WUHU21636XXSP,2013-10-22 19:57:00,
2013-10-22 16:02:00,38.1,34.5,29.81,NNW,337,8.7,21.2,87,0.01,,,0.31,WUHU21636XXSP,2013-10-22 20:02:00,
2013-10-22 16:07:00,37.9,34.3,29.81,NW,315,11.8,19.0,89,0.03,,,0.33,WUHU21636XXSP,2013-10-22 20:07:00,
2013-10-22 16:12:00,37.0,34.0,29.82,NNW,337,9.8,16.5,89,0.03,,,0.33,WUHU21636XXSP,2013-10-22 20:12:00,
2013-10-22 16:17:00,37.0,34.3,29.82,WNW,292,6.0,14.9,90,0.04,,,0.35,WUHU21636XXSP,2013-10-22 20:17:00,
2013-10-22 16:22:00,37.2,34.5,29.81,NW,315,4.0,14.3,90,0.04,,,0.35,WUHU21636XXSP,2013-10-22 20:22:00,
2013-10-22 16:27:00,37.6,34.9,29.81,NW,315,5.5,11.8,90,0.04,,,0.35,WUHU21636XXSP,2013-10-22 20:27:00,
2013-10-22 16:32:00,37.9,35.2,29.81,West,270,1.1,10.9,90,0.04,,,0.35,WUHU21636XXSP,2013-10-22 20:32:00,
2013-10-22 16:37:00,38.3,35.6,29.81,WNW,292,0.0,9.6,90,0.04,,,0.35,WUHU21636XXSP,2013-10-22 20:37:00,
2013-10-22 16:42:00,38.7,36.0,29.81,West,270,1.1,3.1,90,0.04,,,0.35,WUHU21636XXSP,2013-10-22 20:42:00,
2013-10-22 16:47:00,38.8,36.1,29.81,NW,315,3.5,3.5,90,0.06,,,0.37,WUHU21636XXSP,2013-10-22 20:47:00,
2013-10-22 16:52:00,38.8,36.1,29.81,WNW,292,0.0,3.5,90,0.06,,,0.37,WUHU21636XXSP,2013-10-22 20:52:00,
2013-10-22 16:56:00,39.0,36.3,29.81,WNW,292,0.0,3.5,90,0.06,,,0.37,WUHU21636XXSP,2013-10-22 20:56:00,
2013-10-22 17:01:00,39.0,36.3,29.82,WNW,292,0.0,0.0,90,0.06,,,0.37,WUHU21636XXSP,2013-10-22 21:01:00,
2013-10-22 17:06:00,38.8,35.8,29.82,WNW,292,3.5,3.5,89,0.04,,,0.37,WUHU21636XXSP,2013-10-22 21:06:00,
2013-10-22 17:11:00,38.8,35.8,29.82,NNW,337,0.0,8.9,90,0.04,,,0.37,WUHU21636XXSP,2013-10-22 21:11:00,
2013-10-22 17:16:00,38.8,35.8,29.82,NW,315,3.3,8.9,90,0.02,,,0.37,WUHU21636XXSP,2013-10-22 21:16:00,
2013-10-22 17:21:00,38.8,35.8,29.82,West,270,0.0,3.3,90,0.02,,,0.37,WUHU21636XXSP,2013-10-22 21:21:00,
2013-10-22 17:26:00,39.0,36.3,29.82,West,270,1.7,1.7,90,0.02,,,0.37,WUHU21636XXSP,2013-10-22 21:26:00,
2013-10-22 17:31:00,38.8,36.1,29.82,West,270,0.0,1.7,90,0.02,,,0.37,WUHU21636XXSP,2013-10-22 21:31:00,
2013-10-22 17:36:00,38.3,35.6,29.83,NW,315,7.6,10.7,90,0.02,,,0.37,WUHU21636XXSP,2013-10-22 21:36:00,
2013-10-22 17:41:00,37.6,34.5,29.84,NNW,337,2.9,15.6,89,0.02,,,0.37,WUHU21636XXSP,2013-10-22 21:41:00,
2013-10-22 17:46:00,37.4,34.7,29.83,NNW,337,4.0,15.6,90,0.00,,,0.37,WUHU21636XXSP,2013-10-22 21:46:00,
2013-10-22 17:51:00,37.6,34.5,29.83,NNW,337,0.0,4.2,90,0.00,,,0.37,WUHU21636XXSP,2013-10-22 21:51:00,
2013-10-22 17:56:00,37.6,34.5,29.83,NNW,337,0.0,4.0,90,0.00,,,0.37,WUHU21636XXSP,2013-10-22 21:56:00,
2013-10-22 18:01:00,37.6,34.5,29.83,NNW,337,0.0,0.0,90,0.00,,,0.37,WUHU21636XXSP,2013-10-22 22:01:00,
2013-10-22 18:06:00,37.4,34.7,29.83,NNW,337,0.0,0.0,90,0.00,,,0.37,WUHU21636XXSP,2013-10-22 22:06:00,
2013-10-22 18:11:00,37.2,34.5,29.83,NNW,337,0.0,0.0,90,0.00,,,0.37,WUHU21636XXSP,2013-10-22 22:11:00,
2013-10-22 18:16:00,37.0,34.3,29.83,NNW,337,0.0,0.0,90,0.00,,,0.37,WUHU21636XXSP,2013-10-22 22:16:00,
2013-10-22 18:21:00,37.0,34.3,29.83,NNW,337,0.0,0.0,90,0.00,,,0.37,WUHU21636XXSP,2013-10-22 22:21:00,
2013-10-22 18:26:00,36.9,34.2,29.84,NNW,337,0.0,0.0,90,0.00,,,0.37,WUHU21636XXSP,2013-10-22 22:26:00,
2013-10-22 18:31:00,36.7,34.0,29.84,NNW,337,0.0,0.8,90,0.00,,,0.37,WUHU21636XXSP,2013-10-22 22:31:00,
2013-10-22 18:36:00,36.7,34.0,29.84,NNW,337,0.0,0.8,90,0.00,,,0.37,WUHU21636XXSP,2013-10-22 22:36:00,
2013-10-22 18:41:00,36.7,34.0,29.84,NNW,337,0.0,0.0,90,0.00,,,0.37,WUHU21636XXSP,2013-10-22 22:41:00,
2013-10-22 18:46:00,36.7,34.0,29.84,West,270,0.0,0.0,90,0.02,,,0.39,WUHU21636XXSP,2013-10-22 22:46:00,
2013-10-22 18:51:00,36.7,34.0,29.84,WNW,292,0.0,0.8,91,0.02,,,0.39,WUHU21636XXSP,2013-10-22 22:51:00,
2013-10-22 18:56:00,36.7,34.0,29.84,WNW,292,0.0,0.8,91,0.02,,,0.39,WUHU21636XXSP,2013-10-22 22:56:00,
2013-10-22 19:01:00,36.7,34.0,29.84,WNW,292,0.0,0.0,91,0.02,,,0.39,WUHU21636XXSP,2013-10-22 23:01:00,
2013-10-22 19:07:00,36.7,34.0,29.85,NW,315,0.0,0.6,91,0.02,,,0.39,WUHU21636XXSP,2013-10-22 23:07:00,
2013-10-22 19:12:00,36.9,34.3,29.84,NW,315,0.0,0.6,91,0.02,,,0.39,WUHU21636XXSP,2013-10-22 23:12:00,
2013-10-22 19:17:00,36.9,34.3,29.85,NW,315,1.1,8.0,91,0.02,,,0.39,WUHU21636XXSP,2013-10-22 23:17:00,
2013-10-22 19:22:00,37.0,34.5,29.85,NW,315,4.6,8.0,91,0.02,,,0.39,WUHU21636XXSP,2013-10-22 23:22:00,
2013-10-22 19:26:00,37.0,34.5,29.85,NW,315,0.0,4.6,91,0.02,,,0.39,WUHU21636XXSP,2013-10-22 23:26:00,
2013-10-22 19:31:00,37.0,34.5,29.85,NW,315,0.0,3.1,91,0.02,,,0.39,WUHU21636XXSP,2013-10-22 23:31:00,
2013-10-22 19:36:00,37.0,34.5,29.85,NW,315,0.0,0.0,91,0.02,,,0.39,WUHU21636XXSP,2013-10-22 23:36:00,
2013-10-22 19:42:00,37.0,34.5,29.85,NW,315,0.0,0.0,91,0.02,,,0.39,WUHU21636XXSP,2013-10-22 23:42:00,
2013-10-22 19:47:00,37.0,34.5,29.85,NW,315,0.0,1.1,91,0.00,,,0.39,WUHU21636XXSP,2013-10-22 23:47:00,
2013-10-22 19:51:00,36.7,34.2,29.85,ESE,112,0.0,1.1,91,0.00,,,0.39,WUHU21636XXSP,2013-10-22 23:51:00,
2013-10-22 19:56:00,36.7,34.2,29.85,ESE,112,0.0,0.0,90,0.00,,,0.39,WUHU21636XXSP,2013-10-22 23:56:00,
2013-10-22 20:01:00,36.5,33.8,29.85,ESE,112,0.0,0.0,90,0.00,,,0.39,WUHU21636XXSP,2013-10-23 00:01:00,
2013-10-22 20:06:00,36.1,33.4,29.85,ESE,112,0.0,0.0,80,0.00,,,0.39,WUHU21636XXSP,2013-10-23 00:06:00,
2013-10-22 20:11:00,35.8,33.1,29.85,ESE,112,0.0,0.0,90,0.00,,,0.39,WUHU21636XXSP,2013-10-23 00:11:00,
2013-10-22 20:16:00,35.6,32.9,29.85,ESE,112,0.0,0.0,90,0.00,,,0.39,WUHU21636XXSP,2013-10-23 00:16:00,
2013-10-22 20:21:00,35.2,32.5,29.85,ESE,112,0.0,0.0,90,0.00,,,0.39,WUHU21636XXSP,2013-10-23 00:21:00,
2013-10-22 20:26:00,35.1,32.4,29.85,ESE,112,0.0,0.0,90,0.00,,,0.39,WUHU21636XXSP,2013-10-23 00:26:00,
2013-10-22 20:31:00,34.7,32.0,29.85,ESE,112,0.0,0.0,90,0.00,,,0.39,WUHU21636XXSP,2013-10-23 00:31:00,
2013-10-22 20:36:00,34.5,31.8,29.85,ESE,112,0.0,0.0,90,0.00,,,0.39,WUHU21636XXSP,2013-10-23 00:36:00,
2013-10-22 20:41:00,34.5,31.8,29.85,ESE,112,0.0,0.0,90,0.00,,,0.39,WUHU21636XXSP,2013-10-23 00:41:00,
2013-10-22 20:46:00,34.3,31.6,29.85,ESE,112,0.0,0.0,90,0.00,,,0.39,WUHU21636XXSP,2013-10-23 00:46:00,
2013-10-22 20:51:00,34.2,31.5,29.85,ESE,112,0.0,12.0,90,0.00,,,0.39,WUHU21636XXSP,2013-10-23 00:51:00,
2013-10-22 20:56:00,34.2,31.3,29.85,ESE,112,0.0,12.0,90,0.00,,,0.39,WUHU21636XXSP,2013-10-23 00:56:00,
2013-10-22 21:01:00,34.0,31.3,29.85,ESE,112,0.0,0.0,90,0.00,,,0.39,WUHU21636XXSP,2013-10-23 01:01:00,
2013-10-22 21:06:00,34.0,31.3,29.85,ESE,112,0.0,0.0,90,0.00,,,0.39,WUHU21636XXSP,2013-10-23 01:06:00,
2013-10-22 21:11:00,34.0,31.3,29.85,ESE,112,0.0,0.0,90,0.00,,,0.39,WUHU21636XXSP,2013-10-23 01:11:00,
2013-10-22 21:16:00,34.0,31.3,29.85,ESE,112,0.0,0.0,90,0.00,,,0.39,WUHU21636XXSP,2013-10-23 01:16:00,
2013-10-22 21:21:00,34.0,31.3,29.85,ESE,112,0.0,0.0,90,0.00,,,0.39,WUHU21636XXSP,2013-10-23 01:21:00,
2013-10-22 21:26:00,34.2,31.5,29.85,ESE,112,0.0,0.0,90,0.00,,,0.39,WUHU21636XXSP,2013-10-23 01:26:00,
2013-10-22 21:31:00,34.0,31.5,29.85,ESE,112,0.0,0.0,91,0.00,,,0.39,WUHU21636XXSP,2013-10-23 01:31:00,
2013-10-22 21:36:00,34.0,31.5,29.85,ESE,112,0.0,0.0,91,0.00,,,0.39,WUHU21636XXSP,2013-10-23 01:36:00,
2013-10-22 21:41:00,34.0,31.5,29.85,ESE,112,0.0,0.0,91,0.00,,,0.39,WUHU21636XXSP,2013-10-23 01:41:00,
2013-10-22 21:46:00,34.3,31.8,29.85,SE,135,0.0,0.0,91,0.00,,,0.39,WUHU21636XXSP,2013-10-23 01:46:00,
2013-10-22 21:51:00,34.5,32.0,29.85,WSW,247,0.0,0.0,91,0.00,,,0.39,WUHU21636XXSP,2013-10-23 01:51:00,
2013-10-22 21:56:00,34.5,32.0,29.85,WSW,247,0.0,0.0,91,0.00,,,0.39,WUHU21636XXSP,2013-10-23 01:56:00,
2013-10-22 22:01:00,34.5,32.0,29.86,WSW,247,0.0,0.0,91,0.00,,,0.39,WUHU21636XXSP,2013-10-23 02:01:00,
2013-10-22 22:06:00,34.7,32.2,29.85,WSW,247,0.0,0.0,91,0.00,,,0.39,WUHU21636XXSP,2013-10-23 02:06:00,
2013-10-22 22:11:00,34.9,32.4,29.85,WSW,247,0.0,0.0,91,0.00,,,0.39,WUHU21636XXSP,2013-10-23 02:11:00,
2013-10-22 22:16:00,35.1,32.5,29.86,WSW,247,0.0,0.0,91,0.00,,,0.39,WUHU21636XXSP,2013-10-23 02:16:00,
2013-10-22 22:21:00,35.6,33.1,29.86,North,0,5.8,15.6,91,0.02,,,0.41,WUHU21636XXSP,2013-10-23 02:21:00,
2013-10-22 22:26:00,36.1,33.4,29.86,NNW,337,5.1,15.6,90,0.02,,,0.41,WUHU21636XXSP,2013-10-23 02:26:00,
2013-10-22 22:31:00,36.1,33.1,29.86,NNW,337,5.5,10.9,89,0.02,,,0.41,WUHU21636XXSP,2013-10-23 02:31:00,
2013-10-22 22:36:00,36.1,33.1,29.86,NNW,337,3.1,6.9,89,0.02,,,0.41,WUHU21636XXSP,2013-10-23 02:36:00,
2013-10-22 22:41:00,36.1,33.1,29.86,NNW,337,0.0,5.5,89,0.02,,,0.41,WUHU21636XXSP,2013-10-23 02:41:00,
2013-10-22 22:46:00,36.1,32.7,29.86,NNW,337,0.0,4.2,88,0.02,,,0.41,WUHU21636XXSP,2013-10-23 02:46:00,
2013-10-22 22:51:00,36.1,32.7,29.86,NW,315,0.0,4.2,88,0.02,,,0.41,WUHU21636XXSP,2013-10-23 02:51:00,
2013-10-22 22:56:00,36.3,32.9,29.86,NNW,337,0.0,3.8,88,0.02,,,0.41,WUHU21636XXSP,2013-10-23 02:56:00,
2013-10-22 23:01:00,36.3,32.9,29.86,NNW,337,0.0,3.8,87,0.02,,,0.41,WUHU21636XXSP,2013-10-23 03:01:00,
2013-10-22 23:06:00,36.3,32.9,29.86,NNW,337,0.0,0.6,87,0.02,,,0.41,WUHU21636XXSP,2013-10-23 03:06:00,
2013-10-22 23:11:00,36.1,32.5,29.86,NW,315,0.0,2.6,87,0.02,,,0.41,WUHU21636XXSP,2013-10-23 03:11:00,
2013-10-22 23:16:00,36.0,32.4,29.86,NW,315,3.3,3.3,87,0.02,,,0.41,WUHU21636XXSP,2013-10-23 03:16:00,
2013-10-22 23:21:00,36.0,32.4,29.86,NNW,337,0.0,3.3,87,0.00,,,0.41,WUHU21636XXSP,2013-10-23 03:21:00,
2013-10-22 23:26:00,36.0,32.4,29.86,NNW,337,0.0,3.3,87,0.00,,,0.41,WUHU21636XXSP,2013-10-23 03:26:00,
2013-10-22 23:31:00,36.0,32.4,29.86,NNW,337,4.2,4.2,87,0.00,,,0.41,WUHU21636XXSP,2013-10-23 03:31:00,
2013-10-22 23:36:00,36.1,32.5,29.86,NNW,337,2.2,4.2,86,0.00,,,0.41,WUHU21636XXSP,2013-10-23 03:36:00,
2013-10-22 23:41:00,36.3,32.4,29.85,NNW,337,4.6,6.4,86,0.00,,,0.41,WUHU21636XXSP,2013-10-23 03:41:00,
2013-10-22 23:46:00,36.5,32.0,29.86,NW,315,4.6,10.2,84,0.00,,,0.41,WUHU21636XXSP,2013-10-23 03:46:00,
2013-10-22 23:51:00,36.5,32.4,29.86,NNW,337,5.3,10.2,85,0.00,,,0.41,WUHU21636XXSP,2013-10-23 03:51:00,
2013-10-22 23:56:00,36.5,32.0,29.86,NNW,337,3.1,5.3,84,0.00,,,0.41,WUHU21636XXSP,2013-10-23 03:56:00,